Simultaneous Nadir Overpasses (SNOs) Predictions

Prediction of SNOs between AQUA and METOP-A Satellite Orbit:

Table of predicted SNOs for the next 14.0 days since TLE Epoch: 7/20/2018
Index Date (AQUA) Time (AQUA) Lat,Lon (AQUA) SZA (AQUA ) Date (METOP-A) Time (METOP-A) Lat,Lon (METOP-A) SZA (METOP-A ) Distance(km) Time Diff (sec)
1 07/22/2018 02:26:47 74.38, 136.43 54.18 07/22/2018 02:25:34 74.34, 136.17 54.18 8.74 73
2 07/22/2018 03:16:15 -74.46, -56.13 125.72 07/22/2018 03:16:13 -74.48, -56.17 125.70 2.02 2
3 07/22/2018 04:05:43 74.52, 111.37 54.36 07/22/2018 04:06:52 74.51, 111.26 54.34 3.17 69
4 07/24/2018 22:01:04 74.24,-156.83 54.61 07/24/2018 21:59:53 74.18,-157.83 54.62 31.12 71
5 07/24/2018 22:50:35 -74.47, 10.25 125.13 07/24/2018 22:50:29 -74.47, 10.22 125.13 1.17 6
6 07/24/2018 23:40:03 74.53, 177.74 54.95 07/24/2018 23:41:07 74.55, 177.76 54.95 1.51 64
7 07/27/2018 17:35:22 74.10, -90.10 55.09 07/27/2018 17:34:13 74.02, -91.83 55.10 53.74 69
8 07/27/2018 18:24:56 -74.49, 76.62 124.48 07/27/2018 18:24:45 -74.50, 76.72 124.47 3.49 11
9 07/27/2018 19:14:24 74.55,-115.89 55.60 07/27/2018 19:15:24 74.53,-115.88 55.56 2.49 60
10 07/30/2018 13:09:39 73.92, -23.27 55.55 07/30/2018 13:08:32 73.90, -25.71 55.67 75.18 67
11 07/30/2018 13:59:16 -74.46, 143.10 123.85 07/30/2018 13:59:02 -74.49, 143.10 123.82 3.41 14
12 07/30/2018 14:48:44 74.52, -49.41 56.23 07/30/2018 14:49:41 74.51, -49.51 56.21 3.40 57
13 08/02/2018 08:43:56 73.79, 43.43 56.11 08/02/2018 08:42:51 73.73, 40.30 56.22 97.53 65
14 08/02/2018 09:33:36 -74.49,-150.55 123.12 08/02/2018 09:33:18 -74.48,-150.53 123.13 1.29 18
15 08/02/2018 10:23:04 74.55, 16.94 56.96 08/02/2018 10:23:56 74.54, 16.97 56.94 1.18 52




NCC Satellite Simultaneous Nadir Overpasses (SNOs) Prediction Service
